Location: San Martino di Castrozza
(46.2667°N, 11.8000°E)
Time: 16:22:31
(UTC+00:00)

Cosmos 2082 Rocket - Pass Details

Date: 23 April 2021
Orbit: 835 x 852 km, 71.0° (Epoch: 12 May)

Event Time Altitude Azimuth Distance (km) Brightness Sun altitude
Rises 02:13:30 0° 321° (NW) 3,393 5.4 -18.4°
Reaches altitude 10° 02:16:30 10° 306° (NW) 2,453 4.5 -18.0°
Enters shadow 02:19:49 20° 270° (W) 1,838 3.5 -17.5°
